{"data":{"norad_id":57923,"intl_designator":"2023-147L","name":"STARLINK-30440","alt_names":[],"object_type":"PAYLOAD","status":"ACTIVE","operator":null,"country":"US","launch_date":"2023-09-24","launch_site_code":"AFETR","launch_vehicle":null,"mission":null,"orbit_class":"UNKNOWN","rcs_meters":null,"size_class":null,"mass_kg":null,"dimensions":null,"purposes":["comms"],"wikipedia_slug":null,"has_3d_model":false,"image_url":null,"decayed_at":null,"tle_current":{"epoch":"2026-09-20T19:17:49.744608Z","epoch_age_seconds":108187,"freshness":"FRESH","line1":"1 57923U 23147L   26263.80404797 -.00000248  00000+0  50767-6 0  9996","line2":"2 57923  43.0031 303.6950 0000675 247.3462 112.7319 15.27573945166466","mean_motion":15.27573945,"eccentricity":6.75e-5,"inclination_deg":43.0031,"raan_deg":303.695,"arg_perigee_deg":247.3462,"mean_anomaly_deg":112.7319,"bstar":5.0767e-7,"rev_number":16646,"period_min":94.267122368338,"perigee_km":482.6040956625,"apogee_km":483.53035823314,"semimajor_km":6861.2042269478,"source":"CELESTRAK","updated_at":"2026-09-21T09:00:33.741984Z"}}}